Location: Cheyres
(46.8153°N, 6.7877°E)
Time: 11:51:32
(UTC+00:00)

Gbstr 26 Del rocket - Pass Details

Date: 21 September 2021
Orbit: 492 x 1263 km, 51.8° (Epoch: 18 October)

Event Time Altitude Azimuth Distance (km) Brightness Sun altitude
Exits shadow 23:39:40 21° 65° (ENE) 2,424 6.2 -42.8°
Drops below altitude 10° 23:41:56 10° 69° (ENE) 3,129 6.8 -42.7°
Sets 23:44:39 0° 72° (ENE) 4,021 7.5 -42.7°
